Location: Stuttgart
(48.8069°N, 9.1544°E)
Time: 12:24:27
(UTC+01:00)

Tiangong 1 - Visible Passes

Search period start: 19 January 2018 00:00
Search period end: 29 January 2018 00:00
Orbit: 263 x 288 km, 42.8° (Epoch: 18 January)

Date Brightness Start Highest point End Pass type
(mag) Time Alt. Az. Time Alt. Az. Time Alt. Az.
19 Jan 2.7 17:58:03 10° SW 17:59:58 20° S 18:01:53 10° SE visible
20 Jan 2.8 17:57:34 10° SW 17:59:30 20° S 18:01:26 10° SE visible
21 Jan 2.9 17:57:04 10° SW 17:58:55 18° S 18:00:45 10° SE visible
22 Jan 3.3 17:56:33 10° SW 17:58:11 16° SSW 17:59:49 10° SSE visible
23 Jan 3.5 17:56:06 10° SW 17:57:18 13° SSW 17:58:30 10° SSE visible
